This demonstration page uses our WeatherBlox Daily Observations layout. Learn more.

Left ArrowRight Arrow

Hourly Observations for November 27, 2015

Temp ( °F °C ) Dew Point ( °F °C ) Humidity (%) Winds ( mph kmh ) Pressure ( in mb ) Visibility ( mi km ) Precip ( " mm )
12:51 am 00:51 Clear 44 6.7 41 5 89 89 SE 5 7 29.88 1012 10 16.0934 N/A
1:51 am 01:51 Clear 43 6.1 39 3.9 86 86 N N/A 29.88 1012 10 16.0934 N/A
2:51 am 02:51 Clear 41 5 38 3.3 89 89 NE 3 6 29.89 1012 10 16.0934 N/A
3:51 am 03:51 Clear 39 3.9 37 2.8 93 93 N N/A 29.89 1012 10 16.0934 N/A
4:51 am 04:51 Clear 39 3.9 37 2.8 93 93 N N/A 29.89 1012 10 16.0934 N/A
5:51 am 05:51 Clear 37 2.8 35 1.7 93 93 NNE 3 6 29.91 1013 10 16.0934 N/A
6:51 am 06:51 Clear 38 3.3 36 2.2 93 93 N N/A 29.92 1013 10 16.0934 N/A
7:51 am 07:51 Sunny 40 4.4 38 3.3 93 93 SSE 3 6 29.93 1013 10 16.0934 N/A
8:51 am 08:51 Sunny 47 8.3 40 4.4 77 77 N N/A 29.93 1014 10 16.0934 N/A
9:51 am 09:51 Sunny 52 11.1 40 4.4 64 64 VRB 3 6 29.92 1013 10 16.0934 N/A
10:51 am 10:51 Sunny 57 13.9 41 5 55 55 N N/A 29.9 1012 10 16.0934 N/A
11:51 am 11:51 Sunny 63 17.2 44 6.7 50 50 N N/A 29.87 1011 10 16.0934 N/A
12:07 pm 12:07 Hazy 66 18.9 45 7.2 47 47 SSE 10 17 29.8 1009 1.75 2.816345 N/A
12:22 pm 12:22 Sunny 68 20 43 6.1 40 40 S 9 15 29.8 1009 10 16.0934 N/A
12:51 pm 12:51 Sunny 72 22.2 36 2.2 27 27 SSW 18 30 29.8 1009 10 16.0934 N/A
1:51 pm 13:51 Sunny 73 22.8 30 -1.1 20 20 S 25 41 29.77 1008 10 16.0934 N/A
2:51 pm 14:51 Sunny 71 21.7 34 1.1 26 26 WNW 18 30 29.78 1009 10 16.0934 N/A
3:04 pm 15:04 Sunny 70 21.1 32 undefined 25 25 WNW 13 20 29.71 1006 10 16.0934 N/A
3:51 pm 15:51 Sunny 68 20 30 -1.1 24 24 WNW 15 24 29.8 1009 10 16.0934 N/A
4:51 pm 16:51 undefined 60 15.6 30 -1.1 32 32 W 15 24 29.82 1010 10 16.0934 N/A
5:51 pm 17:51 Clear 54 12.2 28 -2.2 37 37 WNW 17 28 29.86 1011 10 16.0934 N/A
6:51 pm 18:51 Clear 51 10.6 27 -2.8 39 39 W 12 19 29.9 1013 10 16.0934 N/A
7:51 pm 19:51 Clear 49 9.4 25 -3.9 39 39 W 15 24 29.92 1013 10 16.0934 N/A
8:51 pm 20:51 Clear 45 7.2 24 -4.4 44 44 NW 6 9 29.94 1014 10 16.0934 N/A
9:51 pm 21:51 Clear 43 6.1 24 -4.4 47 47 NNW 6 9 29.95 1014 10 16.0934 N/A
10:51 pm 22:51 Clear 42 5.6 23 -5 47 47 NW 5 7 29.95 1014 10 16.0934 N/A
11:51 pm 23:51 Clear 37 2.8 23 -5 57 57 NE 6 9 29.97 1015 10 16.0934 N/A

Powered by AerisWeather